Regional Weather Roundup
Issued by NWS Northern Indiana

Home | Current Version | Previous Version | Graphics & Text | Print | Product List | Glossary On
Versions: 1 2 3 4 5 6 7 8 9 10 11 12 13 14 15 16 17 18 19 20 21 22 23 24 25 26 27 28 29 30 31 32 33 34 35 36 37 38 39 40 41 42 43 44 45 46 47 48 49 50
000
ASUS43 KIWX 282310
RWRIWX

KIWX WEATHER ROUNDUP
NATIONAL WEATHER SERVICE NORTHERN INDIANA
700 PM EDT THU MAY 28 2015

NOTE: "FAIR" INDICATES FEW OR NO CLOUDS BELOW 12,000 FEET WITH NO
SIGNIFICANT WEATHER AND/OR OBSTRUCTIONS TO VISIBILITY.

* THESE STATIONS ARE NOT UNDER NWS QUALITY CONTROL. THEY ALSO MAY NOT
  REPORT WEATHER SUCH AS PRECIPITATION OR FOG.

INZ001>027-290000-
NORTHERN INDIANA

CITY           SKY/WX    TMP DP  RH WIND       PRES   REMARKS
GARY*          MOSUNNY   73  55  53 SE13      30.12F
VALPARAISO     SUNNY     81  54  39 E10       30.12F
MICHIGAN CITY* MOSUNNY   79  52  38 SE5       30.13F
LAPORTE*       SUNNY     83  53  35 SE7       30.14F
KNOX*          SUNNY     81  54  39 E12       30.12F
SOUTH BEND     SUNNY     81  54  39 SE15      30.15F
ELKHART*       SUNNY     81  54  39 SE10      30.16F
GOSHEN         SUNNY     80  57  45 SE9       30.15F
MONTICELLO*    MOSUNNY   81  56  41 S6        30.10F
LOGANSPORT*    MOSUNNY   81  45  28 S9        30.12F
ROCHESTER*     SUNNY     82  55  39 SE7       30.13F
WARSAW*        SUNNY     79  59  50 CALM      30.15F
ANGOLA*        SUNNY     79  55  44 SE7       30.18S
FORT WAYNE     MOSUNNY   81  56  42 E8        30.15F
HUNTINGTON*    PTSUNNY   80  57  45 E3        30.14F
PERU/GRISSOM   MOSUNNY   83  58  42 S3        30.11F
MARION*        SUNNY     82  51  34 S9        30.14F

$$
INZ028>050-290000-
CENTRAL INDIANA

CITY           SKY/WX    TMP DP  RH WIND       PRES   REMARKS
LAFAYETTE      MOSUNNY   81  60  48 VRB5      30.09F
KOKOMO*        MOSUNNY   82  55  39 S10       30.11F
MUNCIE*        MOSUNNY   83  59  44 S8        30.13F
INDIANAPOLIS   MOSUNNY   81  59  47 S12       30.10F

$$
MIZ043>046-050>051-056>058-064>065-071>073-077>080-290000-
SOUTHWEST LOWER MICHIGAN

CITY           SKY/WX    TMP DP  RH WIND       PRES   REMARKS
BATTLE CREEK   SUNNY     79  54  41 SE8       30.18F
BENTON HARBOR  SUNNY     80  53  39 E10       30.13F
COLDWATER*     SUNNY     75  53  45 SE7       30.18F
HILLSDALE*     SUNNY     78  53  41 SE6       30.20F
HOLLAND        SUNNY     80  59  48 CALM      30.16F
GRAND RAPIDS   MOSUNNY   80  55  42 SE12      30.16F
KALAMAZOO      SUNNY     80  54  40 SE8       30.17F
STURGIS*       SUNNY     79  55  44 SE8       30.17S
THREE RIVERS*  FAIR      79  54  40 SE10      30.17S

$$
OHZ001>008-015>018-024>025-290000-
NORTHWEST OHIO

CITY           SKY/WX    TMP DP  RH WIND       PRES   REMARKS
DEFIANCE       SUNNY     80  53  39 E10       30.17F
FINDLAY        SUNNY     81  58  45 E8        30.16F
TOLEDO EXPRESS SUNNY     76  53  44 NE13      30.19S
TOLEDO METCALF SUNNY     73  55  53 NE8       30.20F
LIMA           MOSUNNY   79  60  52 SE9       30.16F

$$
AND FOR LAKE MICHIGAN COASTAL AND OPEN LAKE BUOY OBSERVATIONS

STATION/POSITION TEMP    WIND        PRES    VSBY  WAVE
                 AIR SEA DIR/SP/G                  HT/PER
                 (F)     (DEG/KT/KT) (MB)    (MI)  (FT/S)
CALUMET HARBOR    66      30/  5/  7   N/A
MICHIGAN CITY     63      30/ 10/ 12   N/A
BURNS HARBOR      63      60/ 11/ 14 1020.3F
SAINT JOSEPH      69     350/  6/  8 1020.3F
SOUTH LAKE BUOY   59 39   70/  6/  6 1021.0F         0
4 MI NW BRIDGMAN  61 58   40/  8/  8   N/A           1
MICHIGAN CITY     60 56   70/  6/  8   N/A           1

$$
&&


USA.gov is the U.S. government's official web portal to all federal, state and local government web resources and services.